User: anonymous   Login
Location: Bukowiec
(51.6830°N, 19.6670°E)
Time: 15:51:42
(UTC+02:00)
Language:

ISS - Orbit

View from above orbital plane
View from above orbital plane
View from above satellite
View from above satellite

Ground track
Ground track

The orbit data is extracted from the following two-line orbital elements,

1 25544U 98067A   22274.19759479  .00014979  00000-0  26577-3 0  9998
2 25544  51.6446 171.3620 0002537 314.8685 180.8010 15.50443271361628
Epoch (UTC): 01 October 2022 04:44:32
Eccentricity: 0.0002537
inclination: 51.6446°
perigee height: 414 km
apogee height: 417 km
right ascension of ascending node: 171.3620°
argument of perigee: 314.8685°
revolutions per day: 15.50443271
mean anomaly at epoch: 180.8010°
orbit number at epoch: 36162

The dashed part of the orbit path shows where the satellite is in the earth's shadow,  

DLR